No Worries — WDD9422 — position and weather

sailwx.info

Track history (hours):
 
Tides and Currents Weather Stations Pressure Air Temp Water Temp Dewpoint Dewpoint Depression Visibility Wind Speed Wind Dir Waves Ship Positions

No Worries

Owner: Scheck, Michael W, San Leandro, CA. More information available from US FCC via Universal Licensing System and Coast Guard Vessel Documentation Center.

Last reported at 2018-Jun-17 22:00 UTC. Time now 2018-Jun-17 22:03 UTC.
Position N 37°48' W 122°20'.

Length 14 m.

Type: Sailing vessel. MMSI: 367311210.

Date/timePositionNaut miles runAvg speedWind from/ knotsBaromVisibWave heightAir tempDewpointWater temp
2018-Jun-17 22:00N 37°48' W 122°20'2 3.3
2018-Jun-17 21:30N 37°47' W 122°21'1 2.7
2018-Jun-17 20:58N 37°47' W 122°23'1 2.7
2018-Jun-17 20:30N 37°48' W 122°24'1 1.4
2018-Jun-17 19:55N 37°49' W 122°24'2 4.0
2018-Jun-17 19:30N 37°48' W 122°23'3 5.1
2018-Jun-17 19:00N 37°48' W 122°19'2 5.0
2018-Jun-17 18:30N 37°47' W 122°16'0 0.6
2018-Jun-17 18:00N 37°47' W 122°16'0 0.0
2018-Jun-16 04:41N 37°47' W 122°16'0 0.0
2018-Jun-16 04:28N 37°47' W 122°16'1 2.8
2018-Jun-16 04:00N 37°48' W 122°18'2 4.1
2018-Jun-16 03:30N 37°48' W 122°20'1 2.1
2018-Jun-16 03:00N 37°48' W 122°21'3 5.8
2018-Jun-16 02:30N 37°48' W 122°18'2 3.0
2018-Jun-16 01:58N 37°47' W 122°16'  
2018-Jun-10 22:54N 37°47' W 122°16'0 0.0
2018-Jun-10 22:30N 37°47' W 122°16'0 0.0
2018-Jun-10 22:00N 37°47' W 122°16'0 0.0
2018-Jun-10 21:30N 37°47' W 122°16'1 1.6
2018-Jun-10 21:00N 37°48' W 122°17'2 4.3
2018-Jun-10 20:30N 37°48' W 122°19'2 3.5
2018-Jun-10 20:00N 37°49' W 122°21'3 5.7
2018-Jun-10 19:27N 37°52' W 122°23'3 5.3
2018-Jun-10 18:56N 37°54' W 122°25'1 2.7
2018-Jun-10 18:26N 37°55' W 122°26'2 0.0
2018-Jun-08 14:31N 37°53' W 122°24'1 6.2
2018-Jun-08 14:26N 37°53' W 122°24'2 5.8
2018-Jun-08 14:00N 37°50' W 122°22'3 5.1
2018-Jun-08 13:30N 37°48' W 122°21'  
Track history (hours):
 
Tides and Currents Weather Stations Pressure Air Temp Water Temp Dewpoint Dewpoint Depression Visibility Wind Speed Wind Dir Waves Ship Positions

No Worries

Owner: Scheck, Michael W, San Leandro, CA. More information available from US FCC via Universal Licensing System and Coast Guard Vessel Documentation Center.

Last reported at 2018-Jun-17 22:00 UTC. Time now 2018-Jun-17 22:03 UTC.
Position N 37°48' W 122°20'.

Length 14 m.

Type: Sailing vessel. MMSI: 367311210.

Date/timePositionNaut miles runAvg speedWind from/ knotsBaromVisibWave heightAir tempDewpointWater temp
2018-Jun-17 22:00N 37°48' W 122°20'2 3.3
2018-Jun-17 21:30N 37°47' W 122°21'1 2.7
2018-Jun-17 20:58N 37°47' W 122°23'1 2.7
2018-Jun-17 20:30N 37°48' W 122°24'1 1.4
2018-Jun-17 19:55N 37°49' W 122°24'2 4.0
2018-Jun-17 19:30N 37°48' W 122°23'3 5.1
2018-Jun-17 19:00N 37°48' W 122°19'2 5.0
2018-Jun-17 18:30N 37°47' W 122°16'0 0.6
2018-Jun-17 18:00N 37°47' W 122°16'0 0.0
2018-Jun-16 04:41N 37°47' W 122°16'0 0.0
2018-Jun-16 04:28N 37°47' W 122°16'1 2.8
2018-Jun-16 04:00N 37°48' W 122°18'2 4.1
2018-Jun-16 03:30N 37°48' W 122°20'1 2.1
2018-Jun-16 03:00N 37°48' W 122°21'3 5.8
2018-Jun-16 02:30N 37°48' W 122°18'2 3.0
2018-Jun-16 01:58N 37°47' W 122°16'  
2018-Jun-10 22:54N 37°47' W 122°16'0 0.0
2018-Jun-10 22:30N 37°47' W 122°16'0 0.0
2018-Jun-10 22:00N 37°47' W 122°16'0 0.0
2018-Jun-10 21:30N 37°47' W 122°16'1 1.6
2018-Jun-10 21:00N 37°48' W 122°17'2 4.3
2018-Jun-10 20:30N 37°48' W 122°19'2 3.5
2018-Jun-10 20:00N 37°49' W 122°21'3 5.7
2018-Jun-10 19:27N 37°52' W 122°23'3 5.3
2018-Jun-10 18:56N 37°54' W 122°25'1 2.7
2018-Jun-10 18:26N 37°55' W 122°26'2 0.0
2018-Jun-08 14:31N 37°53' W 122°24'1 6.2
2018-Jun-08 14:26N 37°53' W 122°24'2 5.8
2018-Jun-08 14:00N 37°50' W 122°22'3 5.1
2018-Jun-08 13:30N 37°48' W 122°21'  

Dump ship's entire track history